RH
100 54 99 100 78 67 58 63 85 92 89 85 89 100 100 100 95 82 74 88 85 63 63 61 56 74 98 50 50 40 37 32 31 33 35 37 33 37 40 37 40 49 45 45 18
87 100 100 100 100 100 100 91 68 82 99 71 81 100 100 100 69 83 100 100 100 98 90 91 77 62 90 59 58 46 42 40 30 30 30 28 31 26 58 41 44 36 41 43 36
33 84 95 98 91 82 92 100 100 68 77 73 73 100 100 100 97 70 84 100 98 100 100 100 100 73 93 70 59 58 49 45 36 36 31 29 33 26 46 54 55 50 39 43 38
23 21 21 26 21 29 44 60 100 94 81 86 79 97 98 76 100 100 91 100 88 91 96 81 100 100 99 91 63 66 58 57 43 39 39 50 36 31 31 45 44 77 32 40 36
30 29 21 18 17 20 23 24 66 96 100 100 84 55 83 84 100 100 100 99 99 82 76 70 93 100 100 99 84 83 66 61 38 34 49 53 40 35 43 44 49 71 38 35 32
34 32 25 20 18 18 20 22 27 75 100 100 95 76 58 57 86 100 100 100 100 99 80 74 96 79 100 100 95 90 85 73 54 35 42 38 38 34 33 32 82 66 34 34 32
41 36 31 24 20 18 17 20 23 79 100 100 100 85 51 65 96 100 100 99 87 89 89 82 65 82 100 100 100 100 94 100 71 48 40 56 76 35 35 29 41 85 60 34 34
43 40 34 29 22 20 19 17 20 35 96 100 100 100 74 78 82 92 100 100 100 100 100 98 78 76 66 99 100 100 100 100 92 42 54 67 91 52 38 31 34 44 54 49 56
47 44 42 34 26 23 22 18 17 21 23 81 100 100 100 92 97 100 100 100 93 98 100 96 90 82 82 95 100 100 100 100 89 51 83 98 99 64 35 40 32 33 33 43 52
37 40 40 38 32 23 24 21 16 18 23 38 100 100 100 100 78 100 99 94 100 86 95 97 90 87 60 60 61 72 96 100 100 66 86 69 100 97 49 48 47 40 31 31 30
36 35 35 39 37 26 23 24 19 17 19 36 67 100 98 88 93 100 100 91 96 96 100 100 76 74 74 66 57 50 71 99 76 86 99 90 79 72 66 52 61 53 36 30 29
35 36 31 35 35 33 27 24 21 18 17 19 27 96 100 98 73 98 84 93 100 100 100 93 99 65 58 59 52 53 62 74 72 78 83 61 66 56 49 60 66 77 46 39 26
40 34 31 31 36 37 35 26 25 21 18 16 19 25 87 100 100 95 95 100 100 84 67 94 98 87 67 53 52 56 50 43 59 84 83 78 83 60 51 74 91 84 59 46 46
14 32 36 30 26 34 40 36 26 25 23 19 16 19 38 54 77 100 100 96 100 98 81 77 100 88 90 70 62 62 60 49 41 75 68 57 61 53 45 72 98 84 77 64 43
16 13 20 34 28 28 37 35 32 27 26 22 20 17 22 29 35 54 67 91 100 97 91 100 97 90 100 100 90 91 88 77 71 80 72 72 85 80 55 68 100 92 84 67 67
29 20 14 15 36 37 26 33 39 30 27 27 25 22 18 18 19 20 21 31 59 88 100 89 100 94 100 99 99 100 100 100 76 82 98 99 100 100 100 100 100 100 93 85 84
41 35 28 16 15 21 28 25 26 29 30 28 28 26 22 18 20 20 20 20 22 28 42 84 100 100 100 96 100 96 93 96 92 98 100 100 100 100 100 100 93 91 90 84 73
59 46 43 33 21 13 14 22 22 26 24 26 25 26 24 20 18 19 19 18 20 21 20 22 56 87 100 100 100 100 100 100 100 100 100 100 87 100 100 100 100 93 90 87 70
70 39 44 45 30 19 17 13 14 17 19 20 22 26 25 23 22 20 18 18 19 22 21 20 19 20 69 100 100 100 100 100 100 99 41 20 25 39 97 100 100 100 88 80 52
64 56 72 56 37 31 26 21 17 15 15 15 18 20 23 24 22 21 20 19 18 20 21 22 22 21 24 28 45 46 45 52 78 39 26 24 21 76 98 72 72 79 85 85 54
77 60 76 61 44 37 44 67 46 30 22 16 14 16 18 20 23 22 23 20 20 20 21 21 22 23 23 23 27 44 49 71 52 33 32 28 29 73 80 36 47 80 81 72 44
78 76 72 63 47 54 82 88 56 42 39 26 18 15 14 16 18 21 23 23 22 20 19 20 22 23 23 22 24 23 25 26 59 43 37 31 67 90 74 58 77 81 81 58 55
91 83 78 71 55 56 84 92 76 50 46 37 30 26 21 17 17 19 20 23 23 22 24 24 22 22 23 25 43 57 70 62 58 50 58 50 88 81 95 54 94 92 67 51 99
96 88 91 81 68 71 76 85 79 90 67 50 36 40 36 29 29 23 23 22 23 25 26 27 29 33 40 56 93 100 68 81 86 84 80 64 56 73 89 78 84 100 91 95 95
70 67 98 90 68 68 71 92 84 92 91 62 43 50 53 52 62 54 45 55 50 40 53 57 58 82 84 82 81 96 100 100 93 90 90 100 76 100 96 95 100 100 95 92 96
60 87 97 92 78 90 76 95 90 99 98 74 62 73 66 75 89 100 100 89 100 100 83 99 100 100 100 100 100 100 100 100 100 100 66 58 100 100 93 74 85 100 100 100 94
74 96 80 98 90 87 81 96 100 100 96 92 91 65 78 90 97 100 100 100 100 100 100 100 100 100 100 100 100 100 100 100 100 99 86 100 100 100 100 93 99 100 100 82 100
Wind_Speed
87 86 78 78 78 66 63 59 59 54 52 49 48 45 44 43 40 40 41 39 37 34 30 27 24 20 20 16 13 8 8 14 10 12 15 18 23 27 27 29 34 41 41 37 31
89 92 88 86 81 74 67 63 61 61 54 51 51 54 48 49 47 43 44 43 40 34 31 28 27 23 25 20 14 9 12 13 15 15 20 22 24 26 24 27 34 38 35 38 36
82 93 94 94 89 85 75 68 63 67 61 56 54 56 51 51 50 52 45 46 41 37 36 33 31 26 26 26 21 15 15 13 15 18 21 26 25 29 20 26 31 38 31 37 41
84 85 88 92 89 87 81 74 70 71 61 61 59 57 58 52 54 52 52 48 49 43 41 33 33 34 30 32 26 22 18 19 21 23 24 26 26 28 26 26 27 34 30 32 37
87 85 86 86 85 84 82 77 78 74 66 71 64 61 57 54 52 55 52 49 47 46 39 38 34 34 33 35 31 27 22 22 24 25 28 29 27 26 26 28 29 33 29 29 33
90 86 85 84 83 83 83 83 78 76 74 71 70 64 64 60 60 55 55 56 53 48 43 40 40 35 36 36 36 30 26 25 27 28 28 27 28 28 28 31 29 33 32 35 34
90 88 86 85 83 84 82 84 81 79 76 78 78 69 62 61 55 58 54 55 53 49 45 48 44 39 36 38 39 38 34 30 32 32 30 30 31 31 30 32 35 33 37 38 35
93 90 88 85 84 83 84 84 86 83 80 81 78 73 67 63 64 62 58 54 55 51 50 46 46 47 43 35 41 42 38 34 33 33 32 31 36 35 34 35 40 41 43 37 43
95 92 90 88 86 83 85 83 86 86 84 90 79 78 73 73 74 70 64 60 58 58 54 48 49 46 45 41 36 37 41 38 36 36 34 34 39 39 36 38 43 44 44 39 45
96 95 93 90 87 85 85 85 83 88 88 85 82 82 77 78 73 70 68 67 64 60 57 53 50 52 50 48 48 47 44 44 40 42 39 37 40 45 45 44 47 52 47 45 49
99 96 95 93 90 87 85 86 83 86 90 91 84 86 81 83 83 83 76 71 68 62 61 61 52 55 56 51 52 51 49 50 42 46 44 41 45 48 52 54 51 55 51 49 50
103 99 96 96 94 90 86 88 89 85 85 91 91 90 89 86 83 78 77 73 70 69 70 61 60 59 55 54 54 50 50 50 48 49 46 47 49 49 54 57 55 60 55 52 51
109 104 99 97 95 92 91 90 90 89 86 87 93 93 89 95 90 83 88 77 77 77 73 68 68 64 61 57 58 54 54 57 55 55 54 53 53 55 56 59 57 57 57 56 56
103 109 104 99 94 95 94 95 92 92 89 89 86 89 92 91 89 90 89 88 83 80 79 73 74 71 67 66 65 63 62 59 58 56 58 59 58 64 64 61 57 57 61 61 59
90 97 105 105 100 94 98 97 96 94 92 92 90 89 96 93 94 89 90 91 89 91 85 81 79 76 73 70 66 68 66 63 62 60 60 63 60 67 66 62 58 60 63 64 62
86 85 90 97 106 106 98 96 97 97 94 93 92 92 88 91 95 91 90 86 85 86 85 83 82 80 76 72 72 72 69 68 64 63 64 65 62 66 64 63 62 64 65 66 66
85 82 80 85 95 106 104 102 98 96 96 96 95 94 92 88 88 87 84 83 84 82 82 83 84 80 81 81 75 74 70 70 69 69 69 71 66 66 70 71 70 68 67 68 70
85 87 82 82 86 92 96 104 100 97 98 100 97 93 94 94 91 89 86 84 82 80 81 78 79 80 78 74 73 71 74 75 75 76 77 80 75 74 75 76 74 74 71 70 74
92 87 81 80 80 80 84 91 91 97 101 99 97 97 95 95 95 93 90 89 87 84 80 80 77 73 74 76 75 78 80 83 81 79 76 75 74 75 75 76 76 76 77 77 75
93 86 82 80 77 74 76 76 83 87 92 97 96 95 98 96 94 95 96 94 92 88 87 83 79 78 78 77 79 80 82 80 80 79 75 74 74 77 80 77 76 78 79 79 76
95 87 84 80 76 71 67 71 75 75 81 87 91 93 95 95 96 95 96 97 97 95 90 86 83 82 81 79 79 82 82 83 82 82 79 77 75 78 78 78 76 76 76 78 73
96 91 86 79 74 69 67 68 70 68 69 72 75 82 91 92 95 95 97 96 96 98 95 92 86 85 85 85 83 83 85 83 81 80 78 75 77 76 79 78 76 78 76 78 69
95 92 87 80 73 67 69 68 66 64 63 65 67 72 78 86 89 92 96 95 95 94 95 94 91 88 86 86 81 80 82 77 79 81 77 72 79 80 80 75 76 78 78 72 72
100 94 85 79 72 67 68 67 64 61 62 59 57 60 69 75 81 87 88 92 94 94 94 92 91 89 87 83 81 83 85 82 80 76 76 75 76 79 79 76 73 73 75 76 78
99 87 84 77 68 63 69 69 65 61 57 53 51 56 61 68 73 77 82 83 87 89 87 87 87 84 85 85 77 76 78 75 74 76 69 74 73 82 78 73 74 78 80 82 83
92 88 84 79 77 71 68 69 64 59 55 51 52 53 57 61 67 71 76 77 77 78 81 78 76 75 68 72 77 78 76 71 68 72 73 68 75 74 78 81 80 76 78 83 88
92 93 87 82 78 72 67 68 63 59 57 57 57 53 53 58 62 71 76 76 76 73 69 72 74 69 69 63 62 60 68 72 76 74 70 68 75 75 78 84 83 86 89 91 90
Wind_Direction
231 232 231 233 242 242 239 238 236 234 239 237 237 233 234 232 239 242 248 242 239 240 239 247 255 255 263 263 275 295 317 338 340 360 360 342 350 350 356 3 6 1 0 359 348
231 229 228 231 236 235 239 238 238 239 238 240 236 234 236 235 232 237 248 249 245 247 243 250 255 259 259 252 259 271 300 318 316 318 336 337 343 340 347 354 358 357 358 355 353
233 231 232 235 242 241 239 237 235 238 237 241 236 235 234 238 234 237 236 241 240 256 257 263 260 260 255 247 251 259 279 300 308 309 317 336 335 339 336 347 356 355 356 355 350
232 234 234 236 237 239 240 234 230 237 239 240 236 235 236 239 236 239 239 234 241 233 239 248 265 263 262 250 248 254 267 288 300 300 305 324 332 335 334 333 342 346 351 355 350
232 234 234 235 235 236 236 235 231 234 231 238 235 235 230 234 239 238 240 241 239 242 245 246 251 262 265 249 248 249 265 284 300 302 305 312 320 327 336 336 334 340 344 340 346
233 234 234 235 235 233 233 233 231 232 230 234 236 237 235 240 235 239 239 238 238 242 245 244 250 251 264 257 251 250 262 281 290 300 306 314 313 317 320 324 335 337 337 336 340
234 235 234 235 234 232 232 231 231 226 227 231 237 236 236 233 233 235 241 241 239 239 242 243 244 249 255 266 255 254 261 273 286 293 300 308 311 316 317 316 319 322 333 339 338
235 235 234 234 234 232 231 232 230 227 226 225 233 234 236 234 237 237 236 242 243 241 240 244 246 248 251 260 262 258 261 264 277 290 296 298 305 313 312 315 313 318 323 321 325
235 235 235 233 233 232 231 232 230 229 227 228 232 233 231 234 238 238 237 241 245 246 241 251 251 251 246 249 256 264 257 263 272 283 284 296 302 302 309 314 317 312 312 313 313
235 235 234 233 233 231 231 231 231 229 229 229 229 228 228 229 235 235 240 243 244 247 247 248 251 248 250 252 256 261 259 259 272 276 284 292 292 295 300 309 310 314 308 308 307
234 234 234 232 232 232 231 231 232 229 230 229 230 227 231 231 234 237 239 242 245 246 249 248 252 252 254 255 259 258 263 264 270 274 277 286 288 294 293 297 305 307 311 308 303
233 233 234 233 232 231 232 232 231 230 230 230 232 230 227 231 232 233 240 242 243 245 247 250 250 256 252 253 258 258 260 263 268 268 272 283 287 293 295 294 299 302 305 305 309
234 234 233 232 232 231 231 233 232 232 232 230 230 234 233 229 232 234 237 239 242 248 249 250 250 254 253 253 257 258 262 266 268 269 272 281 285 291 295 293 296 299 302 305 305
234 233 232 233 232 231 230 232 232 232 232 233 231 234 233 236 238 234 237 241 241 245 247 249 252 252 253 255 257 262 260 266 269 268 276 279 282 286 293 291 291 293 299 300 303
232 233 233 232 231 232 231 231 231 231 231 233 234 233 233 235 238 237 240 242 241 244 247 245 249 253 255 256 256 258 260 264 268 268 274 278 282 285 287 288 287 291 297 298 299
230 232 233 234 233 232 231 231 231 232 232 232 234 235 235 234 236 237 240 240 242 245 245 244 248 252 252 253 256 260 260 262 264 268 274 280 280 282 283 285 286 290 294 295 297
229 231 232 233 234 233 231 232 232 232 233 232 234 234 235 236 237 238 238 240 242 242 244 246 246 248 251 253 257 258 260 261 262 266 270 275 275 275 279 282 285 288 290 294 296
230 231 231 233 234 233 233 233 232 234 234 234 233 235 235 235 237 239 240 241 243 242 245 247 249 249 249 251 254 255 253 257 261 266 271 271 271 274 278 280 284 287 289 291 294
227 230 230 233 234 234 234 234 234 235 235 235 234 234 235 236 236 239 239 241 242 243 244 244 245 248 247 248 250 252 255 259 265 266 270 272 272 274 275 277 282 285 287 289 292
226 228 229 231 232 233 234 235 235 234 236 235 234 235 236 236 237 238 240 241 242 244 244 245 246 247 248 249 252 255 258 262 264 268 270 272 274 273 274 275 278 282 285 287 291
225 226 228 228 229 230 234 236 236 236 236 236 235 236 236 236 237 238 239 241 242 243 245 247 247 248 251 253 253 254 257 259 262 266 269 272 271 271 275 277 280 282 283 286 287
221 224 227 227 227 228 230 235 238 235 234 235 235 236 237 237 237 237 239 240 243 244 245 245 245 246 248 251 254 257 258 262 263 267 272 273 271 269 276 280 282 282 283 290 286
222 221 223 226 225 227 229 233 236 235 233 233 235 235 235 236 236 238 238 240 242 244 245 246 246 248 250 253 256 258 261 262 265 269 271 271 269 273 275 279 282 286 287 286 284
220 221 221 225 224 224 229 230 234 235 235 233 230 235 233 234 235 238 239 240 241 242 244 246 248 249 251 252 251 254 259 260 264 266 266 269 271 273 273 278 280 277 285 285 286
216 218 219 223 226 224 226 230 231 234 237 236 233 235 234 232 233 235 237 239 241 241 243 244 245 245 247 252 253 253 254 258 262 263 264 267 271 269 273 277 275 279 282 285 288
217 217 218 219 222 218 223 228 230 233 237 238 237 235 235 233 233 233 235 236 237 241 243 244 245 248 248 249 249 249 256 256 255 260 270 270 268 270 275 278 277 275 281 286 288
217 217 216 216 221 220 223 224 223 227 232 234 235 233 231 234 234 234 233 234 232 233 236 240 241 244 240 239 247 247 250 252 259 267 265 265 268 272 273 275 277 277 280 286 282